OUTPOST MISSION 1 (56226 NORAD) Tracking and Keplerian Element Data

This shows tracking and keplerian element data for the satellite.

Feedback or suggestion? Click here.




ElementValue
Catalog56226
NameOUTPOST MISSION 1
Epoch Orbit9154
Epoch Day34.85247617
Epoch Year2025
RAAN163.1971
Inclination97.5565
Eccentricity0.0006274
Argument of Perigee273.4087
Mean Anonmoly86.6438
Mean Motion15.35033392
Decay Rate0.000259
L11 56226U 23084BK 25034.85247617 .00025900 00000+0 76231-3 0 9999
L22 56226 97.5565 163.1971 0006274 273.4087 86.6438 15.35033392 91546



Live tracking and technical data element details for OUTPOST MISSION 1 (NORAD 56226). OUTPOST MISSION 1 can be tracked NOW for your location showing map with azimuth and elevation plus other details from your city location.







IsCatalogInMostPopularTable: catalog: 56226, numindb: 117
Update: records affected: 1



GetName: 56226 OUTPOST MISSION 1

Hit Count: updated at: Mon, 17 Nov 2025 06:07:09 GMT